Location: Pallagorio
(39.3000°N, 16.9000°E)
Time: 02:07:11
(UTC+00:00)

Cosmos 1655 Rocket - Pass Details

Date: 24 January 2021
Orbit: 971 x 1005 km, 83.0° (Epoch: 08 March)

Event Time Altitude Azimuth Distance (km) Brightness Sun altitude
Rises 17:50:10 0° 166° (SSE) 3,665 7.0 -20.5°
Reaches altitude 10° 17:52:47 10° 160° (SSE) 2,718 6.2 -21.0°
Maximum altitude 17:58:37 44° 90° (E) 1,317 4.2 -22.2°
Enters shadow 17:59:08 43° 76° (ENE) 1,334 4.2 -22.3°
